Location: Rounton
(54.4000°N, 1.3500°W)
Time: 19:02:29
(UTC+00:00)

Altair - Pass Details

Date: 01 December 2021
Orbit: 1501 x 1683 km, 47.2° (Epoch: 16 January)

Event Time Altitude Azimuth Distance (km) Brightness Sun altitude
Rises 22:44:53 0° 283° (WNW) 4,654 10.4 -55.0°
Enters shadow 22:48:07 - 273° (W) 3,771 9.7 -55.2°
Reaches altitude 10° 22:48:34 10° 271° (W) 3,660 - -55.2°
Maximum altitude 22:55:31 25° 221° (SW) 2,656 - -55.7°
Drops below altitude 10° 23:02:31 10° 171° (S) 3,663 - -56.1°
Sets 23:06:13 0° 159° (SSE) 4,658 - -56.3°
